Location: Windsor
(43.2292°N, 89.3015°W)
Time: 21:58:20
(UTC+00:00)

MOZHAYETS 4 - Pass Details

Date: 30 June 2022
Orbit: 659 x 679 km, 98.2° (Epoch: 07 August)

Event Time Altitude Azimuth Distance (km) Brightness Sun altitude
Exits shadow 08:38:11 18° 186° (S) 1,634 9.2 -14.4°
Maximum altitude 08:41:29 56° 259° (W) 808 7.9 -14.0°
Drops below altitude 10° 08:46:01 10° 338° (NNW) 2,114 10.7 -13.5°
Sets 08:48:18 0° 343° (NNW) 3,030 11.6 -13.3°
